Location: Newark
(53.2933°N, 6.3959°W)
Time: 15:35:10
(UTC+00:00)

Envisat - Pass Details

Date: 28 February 2020
Orbit: 764 x 766 km, 98.1° (Epoch: 01 April)

Event Time Altitude Azimuth Distance (km) Brightness Sun altitude
Rises 19:48:36 0° 223° (SW) 3,227 6.7 -16.8°
Reaches altitude 10° 19:52:26 10° 253° (WSW) 2,308 6.4 -17.4°
Maximum altitude 19:54:29 12° 277° (W) 2,150 6.5 -17.7°
Drops below altitude 10° 19:56:34 10° 301° (WNW) 2,314 6.6 -18.0°
Sets 20:00:26 0° 331° (NNW) 3,247 6.9 -18.6°
